Newark, NJ

5:25 AM EDT on August 23, 2017 (GMT -0400)
Newark International

Weather History for KEWR - August, 2014

Change the Weather History Date:

Sunday, August 10, 2014

  Actual Average Record
Temperature  
Mean Temperature 76 °F 77 °F  
Max Temperature 88 °F 85 °F 102 °F (1949)
Min Temperature 64 °F 68 °F 57 °F (1962)
Degree Days  
Heating Degree Days 0 0  
Month to date heating degree days 0 0  
Since 1 June heating degree days 0 17  
Since 1 July heating degree days 0 0  
Cooling Degree Days 11 12  
Month to date cooling degree days 110 120  
Year to date cooling degree days 799 818  
Since 1 June cooling degree days 737 742  
Growing Degree Days 26 (Base 50)    
Moisture  
Dew Point 57 °F    
Average Humidity 51    
Maximum Humidity 73    
Minimum Humidity 29    
Precipitation  
Precipitation 0.00 in 0.12 in 1.94 in (2007)
Month to date precipitation 0.58 1.42  
Year to date precipitation 33.44 29.09  
Snow  
Snow 0.00 in 0.00 in 0.00 in (2002)
Month to date snowfall 0.0 0.0  
Since 1 July snowfall 0.0 0.0  
Snow Depth 0.00 in    
Sea Level Pressure  
Sea Level Pressure 30.11 in    
Wind  
Wind Speed 6 mph (ESE)    
Max Wind Speed 12 mph    
Max Gust Speed 20 mph    
Visibility 10 miles    
Events      
T = Trace of Precipitation, MM = Missing Value Source: NWS Daily Summary

Daily Weather History Graph

Daily Weather History Graph

Search for Another Location

Airport or City:

Trip Planner

Search our weather history database for the weather conditions in past years. The results will help you decide how hot, cold, wet, or windy it might be!

Date:

Astronomy

Aug. 10, 2014 Rise Set
Actual Time 6:02 AM EDT 8:01 PM EDT
Civil Twilight 5:32 AM EDT 8:31 PM EDT
Nautical Twilight 4:55 AM EDT 9:07 PM EDT
Astronomical Twilight 4:16 AM EDT 9:46 PM EDT
Moon 7:45 PM EDT (8/10) 5:51 AM EDT (8/10)
Length of Visible Light 14h 58m
Length of Day
13h 59m
Full, 100% of the Moon is Illuminated
Aug 10
Full
Aug 10
Full
Aug 17
Last Quarter
Aug 25
New
Sep 2
First Quarter

Hourly Weather History & Observations

Time (EDT) Temp. Heat Index Dew Point Humidity Pressure Visibility Wind Dir Wind Speed Gust Speed Precip Events Conditions
12:51 AM 72.0 °F - 59.0 °F 64% 30.12 in 10.0 mi SW 3.5 mph - N/A   Partly Cloudy
1:51 AM 72.0 °F - 59.0 °F 64% 30.11 in 10.0 mi WSW 3.5 mph - N/A   Partly Cloudy
2:51 AM 71.1 °F - 59.0 °F 66% 30.11 in 10.0 mi West 3.5 mph - N/A   Scattered Clouds
3:51 AM 69.1 °F - 59.0 °F 70% 30.11 in 10.0 mi Calm Calm - N/A   Scattered Clouds
4:51 AM 66.9 °F - 57.9 °F 73% 30.11 in 10.0 mi NNE 4.6 mph - N/A   Scattered Clouds
5:51 AM 66.0 °F - 57.0 °F 73% 30.12 in 10.0 mi NNE 5.8 mph - N/A   Scattered Clouds
6:51 AM 68.0 °F - 57.9 °F 70% 30.13 in 10.0 mi NNE 5.8 mph - N/A   Scattered Clouds
7:51 AM 72.0 °F - 60.1 °F 66% 30.14 in 10.0 mi NNE 5.8 mph - N/A   Scattered Clouds
8:51 AM 77.0 °F - 57.9 °F 52% 30.14 in 10.0 mi NNE 9.2 mph - N/A   Partly Cloudy
9:51 AM 80.6 °F 80.8 °F 57.2 °F 45% 30.13 in 10.0 mi NE 8.1 mph - N/A   Partly Cloudy
10:51 AM 82.9 °F 82.6 °F 57.9 °F 42% 30.13 in 10.0 mi NNE 5.8 mph - N/A   Scattered Clouds
11:51 AM 86.0 °F 84.5 °F 55.0 °F 35% 30.13 in 10.0 mi NE 6.9 mph - N/A   Scattered Clouds
12:51 PM 84.0 °F 82.6 °F 54.0 °F 35% 30.12 in 10.0 mi ESE 5.8 mph - N/A   Scattered Clouds
1:51 PM 87.1 °F - 52.0 °F 30% 30.11 in 10.0 mi East 6.9 mph - N/A   Scattered Clouds
2:51 PM 86.0 °F - 52.0 °F 31% 30.10 in 10.0 mi North 4.6 mph - N/A   Scattered Clouds
3:51 PM 87.1 °F 85.1 °F 54.0 °F 32% 30.09 in 10.0 mi South 6.9 mph - N/A   Scattered Clouds
4:51 PM 84.2 °F 82.8 °F 53.6 °F 35% 30.08 in 10.0 mi SE 5.8 mph - N/A   Scattered Clouds
5:51 PM 84.9 °F 83.2 °F 53.1 °F 33% 30.08 in 10.0 mi South 5.8 mph - N/A   Scattered Clouds
6:51 PM 82.0 °F 81.6 °F 55.9 °F 41% 30.08 in 10.0 mi SSE 8.1 mph - N/A   Scattered Clouds
7:51 PM 82.4 °F 81.7 °F 55.4 °F 39% 30.08 in 10.0 mi South 5.8 mph - N/A   Mostly Cloudy
8:51 PM 80.1 °F 80.1 °F 55.0 °F 42% 30.09 in 10.0 mi South 8.1 mph - N/A   Mostly Cloudy
9:51 PM 78.1 °F - 57.9 °F 50% 30.10 in 10.0 mi South 5.8 mph - N/A   Scattered Clouds
10:51 PM 77.0 °F - 59.0 °F 54% 30.11 in 10.0 mi South 5.8 mph - N/A   Partly Cloudy
11:51 PM 75.0 °F - 59.0 °F 57% 30.12 in 10.0 mi SW 5.8 mph - N/A   Mostly Cloudy